"startDT [UTC]","vpos","CH4 [ppm]","stdev(CH4) [ppm]","CO2 [ppm]","stdev(CO2) [ppm]","H2O [ppm]","stdev(H2O)","p_LGR [torr]","T_LGR [C]","mt1_LGR [us]","mt2_LGR [us]","T_ECpre [C]","T_EC1 [C]","T_EC2 [C]","p_inlet [hPa]","p_in [hPa]","p_out [hPa]","T_inlet [C]","RH_inlet [%]","dwpt_inlet [C]","T_vent [C]","RH_vent [%]","dwpt_vent [C]","flow_vent [l min-1]","flow_inlet [l min-1]","dwpt_sample [C]","T_room [C]"
2012-09-20 00:00:00,0.0,1.9551,0.0009,392.40,0.29,266.1,29.0,138.05,31.22,24.66,36.52,0.94,-25.73,17.08,-46,42,-941,23.5,18.1,-2.2,23.5,2.0,-28.5,5.73,2.60,-26.9,29.0
2012-09-20 00:01:00,0.0,1.9544,0.0010,392.49,0.30,265.7,30.5,138.05,31.22,24.66,36.51,0.94,-25.73,17.16,-46,42,-941,23.5,18.1,-2.2,23.5,2.0,-28.5,5.73,2.62,-26.9,29.0
2012-09-20 00:02:00,0.0,1.9546,0.0009,392.50,0.26,263.3,28.5,138.05,31.22,24.65,36.51,0.94,-25.74,17.23,-46,42,-941,23.5,18.2,-2.1,23.5,2.0,-28.6,5.73,2.57,-26.9,29.0
2012-09-20 00:03:00,0.0,1.9531,0.0009,392.44,0.23,268.4,28.9,138.05,31.22,24.65,36.51,0.94,-25.73,17.31,-46,42,-941,23.5,18.3,-2.0,23.5,2.0,-28.5,5.73,2.59,-26.9,29.0
2012-09-20 00:04:00,0.0,1.9535,0.0008,392.33,0.30,263.9,33.8,138.05,31.23,24.65,36.52,0.92,-25.72,17.39,-46,42,-941,23.5,18.1,-2.1,23.5,2.0,-28.5,5.73,2.62,-26.9,29.0
2012-09-20 00:05:00,0.0,1.9540,0.0008,392.41,0.28,266.5,26.5,138.05,31.23,24.65,36.51,0.93,-25.72,17.45,-46,42,-941,23.5,18.2,-2.1,23.6,2.0,-28.5,5.73,2.60,-26.9,29.0
2012-09-20 00:06:00,0.0,1.9540,0.0007,392.39,0.29,264.1,32.0,138.05,31.23,24.66,36.52,0.92,-25.72,17.52,-46,42,-942,23.5,18.2,-2.0,23.6,2.0,-28.5,5.73,2.58,-26.9,29.0
2012-09-20 00:07:00,0.0,1.9539,0.0009,392.50,0.28,264.4,29.5,138.05,31.22,24.65,36.51,0.90,-25.71,17.58,-46,42,-941,23.5,17.9,-2.3,23.6,2.0,-28.5,5.73,2.61,-26.9,28.9
2012-09-20 00:08:00,0.0,1.9540,0.0011,392.37,0.29,265.5,27.7,138.05,31.22,24.66,36.52,0.92,-25.71,17.64,-46,42,-942,23.5,17.7,-2.4,23.6,2.0,-28.5,5.73,2.62,-26.9,28.9
2012-09-20 00:09:00,0.0,1.9545,0.0009,392.45,0.26,263.8,26.4,138.05,31.22,24.65,36.51,0.91,-25.71,17.70,-46,42,-941,23.5,17.9,-2.3,23.6,2.0,-28.6,5.73,2.59,-26.9,28.9
2012-09-20 00:10:00,0.0,1.9550,0.0011,392.45,0.30,266.9,24.7,138.05,31.23,24.65,36.52,0.90,-25.71,17.75,-46,42,-941,23.5,18.1,-2.1,23.6,2.0,-28.7,5.73,2.59,-26.9,28.9
2012-09-20 00:11:00,0.0,1.9538,0.0009,392.47,0.25,268.9,32.3,138.05,31.23,24.66,36.51,0.91,-25.70,17.81,-47,42,-941,23.5,18.1,-2.1,23.6,2.0,-28.6,5.73,2.62,-26.9,28.9
2012-09-20 00:12:00,0.0,1.9535,0.0008,392.38,0.31,261.1,31.4,138.05,31.23,24.65,36.52,0.92,-25.70,17.86,-46,42,-941,23.5,18.0,-2.2,23.6,2.0,-28.5,5.73,2.60,-26.9,29.0
2012-09-20 00:13:00,0.0,1.9542,0.0010,392.38,0.27,264.4,30.8,138.05,31.22,24.66,36.52,0.91,-25.71,17.90,-46,42,-942,23.5,18.0,-2.2,23.6,2.0,-28.6,5.73,2.57,-26.9,29.0
2012-09-20 00:14:00,0.0,1.9548,0.0010,392.46,0.34,267.5,28.8,138.05,31.22,24.66,36.52,0.91,-25.70,17.95,-47,42,-941,23.5,18.1,-2.1,23.6,2.0,-28.6,5.73,2.60,-26.9,29.0
2012-09-20 00:15:00,0.0,1.9541,0.0010,392.36,0.29,268.3,32.0,138.05,31.23,24.65,36.52,0.93,-25.70,18.00,-46,42,-941,23.5,18.0,-2.2,23.6,2.0,-28.6,5.73,2.62,-26.9,29.0
2012-09-20 00:16:00,0.0,1.9543,0.0008,392.53,0.32,263.5,35.0,138.05,31.23,24.66,36.51,0.93,-25.70,18.04,-47,42,-941,23.5,18.1,-2.2,23.6,2.0,-28.6,5.73,2.59,-26.9,29.0
2012-09-20 00:17:00,0.0,1.9550,0.0010,392.46,0.30,265.3,32.8,138.05,31.23,24.66,36.52,0.92,-25.70,18.08,-47,42,-941,23.5,18.0,-2.2,23.6,2.0,-28.6,5.73,2.58,-26.9,28.9
2012-09-20 00:18:00,0.0,1.9559,0.0009,392.46,0.29,263.0,27.1,138.05,31.23,24.66,36.52,0.93,-25.69,18.12,-46,42,-942,23.5,18.1,-2.1,23.6,2.0,-28.6,5.73,2.62,-26.9,28.9
2012-09-20 00:19:00,0.0,1.9562,0.0009,392.44,0.28,268.0,26.3,138.05,31.22,24.66,36.51,0.93,-25.69,18.15,-47,42,-941,23.5,18.0,-2.2,23.6,2.0,-28.6,5.73,2.60,-26.9,29.0
2012-09-20 00:20:00,0.0,1.9546,0.0010,392.50,0.35,256.9,33.5,138.05,31.22,24.66,36.51,0.93,-25.70,18.18,-47,42,-942,23.5,18.0,-2.1,23.6,2.0,-28.6,5.73,2.58,-26.9,29.0
2012-09-20 00:21:00,0.0,1.9535,0.0010,392.43,0.28,267.3,26.8,138.05,31.22,24.66,36.51,0.94,-25.69,18.22,-46,42,-941,23.5,17.8,-2.3,23.6,2.0,-28.6,5.73,2.61,-26.9,29.0
2012-09-20 00:22:00,0.0,1.9541,0.0009,392.46,0.31,264.0,29.3,138.06,31.22,24.65,36.51,0.94,-25.69,18.26,-47,42,-941,23.5,17.7,-2.4,23.6,2.0,-28.6,5.73,2.62,-27.0,29.0
2012-09-20 00:23:00,0.0,1.9548,0.0009,392.48,0.29,257.7,26.8,138.05,31.22,24.65,36.51,0.93,-25.69,18.29,-47,42,-941,23.5,17.8,-2.3,23.6,2.0,-28.6,5.73,2.58,-27.0,29.0
2012-09-20 00:24:00,0.0,1.9541,0.0010,392.47,0.27,266.9,30.6,138.05,31.22,24.66,36.52,0.94,-25.69,18.32,-46,42,-941,23.5,17.9,-2.3,23.6,2.0,-28.6,5.73,2.58,-26.9,29.0
2012-09-20 00:25:00,0.0,1.9533,0.0010,392.41,0.28,274.4,31.5,138.06,31.22,24.66,36.52,0.94,-25.69,18.34,-47,42,-942,23.5,17.8,-2.3,23.6,2.0,-28.6,5.73,2.63,-27.0,29.0
2012-09-20 00:26:00,0.0,1.9533,0.0009,392.39,0.24,261.9,31.0,138.06,31.22,24.65,36.52,0.95,-25.69,18.37,-47,42,-941,23.5,17.7,-2.4,23.6,2.0,-28.6,5.73,2.60,-26.9,29.0
2012-09-20 00:27:00,0.0,1.9535,0.0011,392.52,0.28,266.8,31.2,138.05,31.22,24.65,36.51,0.94,-25.68,18.40,-47,42,-941,23.5,17.5,-2.5,23.6,2.0,-28.6,5.73,2.58,-27.0,29.0
2012-09-20 00:28:00,0.0,1.9536,0.0011,392.36,0.31,256.0,30.3,138.05,31.22,24.65,36.53,0.94,-25.69,18.42,-47,42,-941,23.5,17.4,-2.6,23.6,2.0,-28.6,5.73,2.61,-27.0,29.0
2012-09-20 00:29:00,0.0,1.9537,0.0009,392.48,0.27,268.0,31.6,138.05,31.22,24.65,36.51,0.93,-25.69,18.44,-47,42,-941,23.5,17.4,-2.6,23.6,2.0,-28.6,5.73,2.62,-27.0,29.0
2012-09-20 00:30:00,0.0,1.9540,0.0010,392.46,0.30,256.1,30.9,138.05,31.23,24.65,36.52,0.93,-25.69,18.47,-46,42,-942,23.5,17.5,-2.5,23.6,2.0,-28.6,5.73,2.58,-27.0,29.0
2012-09-20 00:31:00,0.0,1.9542,0.0010,392.46,0.29,263.2,26.6,138.05,31.23,24.66,36.51,0.92,-25.69,18.49,-47,42,-941,23.5,17.6,-2.5,23.6,2.0,-28.6,5.73,2.59,-27.0,29.0
2012-09-20 00:32:00,0.0,1.9549,0.0010,392.53,0.29,263.2,31.1,138.05,31.22,24.65,36.52,0.94,-25.69,18.51,-47,42,-941,23.6,17.7,-2.4,23.7,2.0,-28.6,5.73,2.63,-27.0,29.0
2012-09-20 00:33:00,0.0,1.9542,0.0009,392.40,0.28,259.3,36.0,138.05,31.22,24.66,36.52,0.91,-25.69,18.53,-47,42,-941,23.6,17.7,-2.3,23.7,2.0,-28.6,5.73,2.60,-27.0,29.0
2012-09-20 00:34:00,0.0,1.9540,0.0008,392.53,0.30,261.9,31.6,138.06,31.22,24.66,36.51,0.91,-25.69,18.55,-47,42,-941,23.6,17.7,-2.3,23.7,2.0,-28.5,5.73,2.57,-27.0,29.0
2012-09-20 00:35:00,0.0,1.9553,0.0008,392.43,0.29,261.7,29.2,138.06,31.22,24.65,36.52,0.93,-25.69,18.57,-47,42,-941,23.6,17.8,-2.3,23.7,2.0,-28.6,5.73,2.61,-27.0,29.0
2012-09-20 00:36:00,0.0,1.9548,0.0007,392.46,0.28,263.4,31.3,138.06,31.22,24.65,36.52,0.93,-25.69,18.58,-47,41,-942,23.6,17.9,-2.2,23.7,2.0,-28.6,5.73,2.62,-27.0,29.0
2012-09-20 00:37:00,0.0,1.9552,0.0008,392.54,0.32,262.3,32.4,138.06,31.22,24.65,36.52,0.92,-25.69,18.61,-47,42,-941,23.6,17.9,-2.2,23.7,2.0,-28.6,5.73,2.58,-27.0,29.1
2012-09-20 00:38:00,0.0,1.9552,0.0010,392.47,0.25,263.2,27.3,138.06,31.21,24.65,36.51,0.93,-25.69,18.62,-47,42,-941,23.6,17.9,-2.2,23.7,2.0,-28.6,5.73,2.60,-27.0,29.0
2012-09-20 00:39:00,0.0,1.9538,0.0010,392.43,0.29,266.7,26.9,138.06,31.21,24.66,36.51,0.91,-25.69,18.63,-47,41,-941,23.6,17.9,-2.2,23.7,2.0,-28.6,5.73,2.62,-27.0,29.1
2012-09-20 00:40:00,0.0,1.9544,0.0011,392.41,0.29,268.4,26.7,138.06,31.21,24.65,36.52,0.92,-25.68,18.65,-47,42,-941,23.6,17.9,-2.2,23.7,2.0,-28.6,5.73,2.59,-27.0,29.1
2012-09-20 00:41:00,0.0,1.9558,0.0008,392.46,0.28,266.5,27.0,138.06,31.21,24.65,36.52,0.92,-25.69,18.66,-47,41,-941,23.6,17.9,-2.2,23.7,2.0,-28.6,5.73,2.58,-27.0,29.1
2012-09-20 00:42:00,0.0,1.9564,0.0009,392.45,0.27,263.0,22.5,138.06,31.21,24.65,36.52,0.93,-25.68,18.68,-47,42,-941,23.6,17.7,-2.3,23.7,2.0,-28.6,5.73,2.62,-27.0,29.0
2012-09-20 00:43:00,0.0,1.9561,0.0008,392.38,0.26,260.5,30.1,138.06,31.21,24.65,36.52,1.11,-25.69,18.21,-47,41,-941,23.7,17.7,-2.3,23.7,2.0,-28.7,5.73,2.61,-27.0,29.1
2012-09-20 00:44:00,0.0,1.9570,0.0008,392.51,0.31,263.2,28.9,138.06,31.21,24.65,36.51,1.18,-25.67,16.25,-47,41,-941,23.6,18.0,-2.0,23.7,1.9,-28.7,5.73,2.58,-27.0,29.1
2012-09-20 00:45:00,0.0,1.9580,0.0009,392.50,0.27,268.7,31.8,138.05,31.21,24.65,36.52,1.02,-25.70,13.91,-47,42,-942,23.7,18.0,-2.0,23.7,2.0,-28.7,5.73,2.60,-27.0,29.0
2012-09-20 00:46:00,0.0,1.9573,0.0008,392.49,0.31,260.8,29.0,138.06,31.21,24.65,36.52,0.94,-25.76,11.50,-47,41,-941,23.7,17.9,-2.1,23.7,2.0,-28.7,5.73,2.62,-27.0,29.0
2012-09-20 00:47:00,0.0,1.9570,0.0009,392.49,0.32,262.8,27.6,138.06,31.21,24.65,36.52,1.04,-25.80,9.17,-47,41,-941,23.7,17.8,-2.1,23.7,1.9,-28.7,5.73,2.58,-27.0,29.0
2012-09-20 00:48:00,0.0,1.9551,0.0009,392.40,0.28,260.1,28.5,138.06,31.21,24.66,36.52,1.11,-25.82,6.92,-47,42,-942,23.7,18.0,-2.0,23.7,2.0,-28.7,5.73,2.60,-27.1,29.0
2012-09-20 00:49:00,0.0,1.9556,0.0008,392.43,0.27,264.8,34.3,138.06,31.20,24.65,36.52,1.00,-25.83,4.79,-47,41,-941,23.7,18.0,-2.0,23.8,1.9,-28.7,5.73,2.62,-27.1,29.0
2012-09-20 00:50:00,0.0,1.9552,0.0014,392.47,0.29,265.1,30.7,138.06,31.20,24.65,36.51,0.97,-25.84,2.77,-47,42,-941,23.7,17.6,-2.3,23.8,1.9,-28.7,5.73,2.58,-27.1,29.0
2012-09-20 00:51:00,0.0,1.9550,0.0009,392.49,0.28,257.0,34.8,138.06,31.20,24.66,36.51,1.09,-25.84,0.88,-47,42,-941,23.8,17.6,-2.3,23.8,1.9,-28.8,5.73,2.60,-27.1,29.0
2012-09-20 00:52:00,0.0,1.9554,0.0008,392.52,0.28,259.4,33.0,138.06,31.20,24.65,36.51,1.02,-25.84,-0.68,-47,41,-941,23.8,17.5,-2.3,23.8,1.9,-28.8,5.73,2.63,-27.1,28.9
2012-09-20 00:53:00,0.0,1.9537,0.0012,392.44,0.28,253.4,26.9,138.06,31.19,24.65,36.52,0.99,-25.84,-2.31,-47,41,-941,23.8,17.4,-2.4,23.8,1.9,-28.8,5.73,2.58,-27.1,29.0
2012-09-20 00:54:00,0.0,1.9521,0.0009,392.47,0.27,252.0,25.1,138.06,31.19,24.66,36.51,1.09,-25.84,-3.83,-47,42,-942,23.8,17.1,-2.6,23.8,1.9,-28.8,5.73,2.60,-27.1,29.0
2012-09-20 00:55:00,0.0,1.9533,0.0008,392.48,0.30,258.3,32.1,138.06,31.19,24.65,36.52,1.01,-25.84,-5.26,-47,41,-941,23.8,17.2,-2.5,23.8,1.9,-28.7,5.73,2.63,-27.1,29.0
2012-09-20 00:56:00,0.0,1.9540,0.0010,392.52,0.30,260.6,27.4,138.06,31.19,24.65,36.52,0.98,-25.84,-6.61,-47,42,-941,23.8,17.4,-2.4,23.8,1.9,-28.8,5.73,2.58,-27.1,29.0
2012-09-20 00:57:00,0.0,1.9533,0.0009,392.36,0.31,251.0,34.9,138.06,31.19,24.66,36.52,1.07,-25.85,-7.92,-47,42,-942,23.8,17.2,-2.5,23.8,1.9,-28.8,5.73,2.60,-27.1,29.0
2012-09-20 00:58:00,0.0,1.9544,0.0009,392.51,0.29,256.9,29.7,138.06,31.19,24.65,36.51,1.04,-25.84,-9.12,-47,42,-941,23.8,17.3,-2.5,23.8,1.9,-28.8,5.73,2.63,-27.1,29.0
2012-09-20 00:59:00,0.0,1.9552,0.0010,392.52,0.26,253.4,28.4,138.06,31.19,24.65,36.52,0.95,-25.85,-10.21,-47,42,-942,23.9,17.4,-2.3,23.8,1.9,-28.8,5.73,2.58,-27.1,29.0
2012-09-20 01:00:00,0.0,1.9541,0.0011,392.52,0.30,248.6,28.4,138.06,31.19,24.65,36.51,1.03,-25.85,-11.33,-47,41,-941,23.9,17.3,-2.4,23.8,1.9,-28.8,5.73,2.61,-27.1,29.0
2012-09-20 01:01:00,0.0,1.9548,0.0009,392.50,0.30,257.7,27.4,138.06,31.19,24.66,36.51,1.08,-25.86,-12.38,-47,42,-941,23.9,17.2,-2.5,23.8,1.9,-28.8,5.73,2.62,-27.1,29.0
2012-09-20 01:02:00,0.0,1.9554,0.0010,392.53,0.31,254.6,25.1,138.06,31.18,24.66,36.52,0.98,-25.86,-13.37,-47,42,-942,23.9,17.3,-2.4,23.8,1.9,-28.8,5.73,2.57,-27.1,29.0
2012-09-20 01:03:00,0.0,1.9552,0.0009,392.56,0.26,250.6,26.2,138.06,31.18,24.66,36.51,0.99,-25.87,-14.29,-47,42,-941,23.9,17.5,-2.3,23.9,1.9,-28.9,5.73,2.62,-27.1,29.1
2012-09-20 01:04:00,0.0,1.9552,0.0009,392.52,0.27,254.2,26.6,138.06,31.18,24.66,36.51,1.07,-25.87,-15.17,-47,42,-941,23.9,17.4,-2.3,23.9,1.9,-28.8,5.73,2.61,-27.1,29.1
2012-09-20 01:05:00,0.0,1.9558,0.0008,392.57,0.27,248.6,25.3,138.06,31.18,24.65,36.51,1.03,-25.88,-16.01,-47,42,-942,23.9,17.4,-2.3,23.9,1.9,-28.9,5.73,2.58,-27.1,29.1
2012-09-20 01:06:00,0.0,1.9539,0.0010,392.46,0.26,252.4,29.3,138.07,31.17,24.65,36.51,0.95,-25.89,-16.84,-47,42,-941,24.0,17.4,-2.3,23.9,1.9,-28.9,5.73,2.63,-27.1,29.1
2012-09-20 01:07:00,0.0,1.9528,0.0008,392.47,0.26,266.2,26.1,138.07,31.17,24.65,36.51,1.01,-25.90,-17.56,-47,41,-942,24.0,17.3,-2.4,23.9,1.9,-28.9,5.73,2.60,-27.1,29.2
2012-09-20 01:08:00,0.0,1.9530,0.0010,392.44,0.26,251.8,31.5,138.07,31.16,24.66,36.51,1.07,-25.90,-18.23,-47,42,-941,24.0,17.4,-2.3,23.9,1.9,-29.0,5.73,2.59,-27.1,29.1
2012-09-20 01:09:00,0.0,1.9540,0.0008,392.57,0.26,253.5,38.9,138.06,31.16,24.66,36.51,1.01,-25.91,-18.84,-47,41,-941,24.0,17.4,-2.3,23.9,1.9,-28.9,5.73,2.63,-27.1,29.1
2012-09-20 01:10:00,0.0,1.9529,0.0008,392.47,0.28,251.9,27.8,138.07,31.15,24.66,36.52,0.95,-25.92,-19.47,-47,42,-942,24.0,17.1,-2.4,23.9,1.9,-28.8,5.73,2.58,-27.1,29.1
2012-09-20 01:11:00,0.0,1.9528,0.0009,392.43,0.28,254.0,35.0,138.07,31.15,24.66,36.52,1.02,-25.92,-20.08,-47,42,-941,24.0,17.1,-2.5,23.9,1.9,-28.9,5.73,2.60,-27.1,29.1
2012-09-20 01:12:00,0.0,1.9532,0.0010,392.44,0.23,260.1,30.0,138.07,31.15,24.66,36.51,1.07,-25.93,-20.66,-47,41,-942,24.0,17.2,-2.4,23.9,1.9,-28.9,5.73,2.63,-27.2,29.1
2012-09-20 01:13:00,0.0,1.9532,0.0011,392.50,0.29,246.3,26.1,138.07,31.15,24.65,36.51,1.00,-25.94,-21.20,-47,41,-941,24.0,17.1,-2.5,23.9,1.9,-28.9,5.73,2.57,-27.2,29.2
2012-09-20 01:14:00,0.0,1.9523,0.0009,392.43,0.26,245.4,30.9,138.07,31.14,24.65,36.52,0.95,-25.95,-21.71,-47,41,-942,24.0,17.1,-2.5,23.9,1.9,-28.9,5.73,2.63,-27.2,29.2
2012-09-20 01:15:00,0.0,1.9517,0.0010,392.39,0.29,247.2,33.4,138.07,31.14,24.66,36.51,1.00,-25.96,-22.19,-48,42,-941,24.1,17.1,-2.4,23.9,1.9,-28.9,5.73,2.60,-27.2,29.2
2012-09-20 01:16:00,0.0,1.9518,0.0011,392.38,0.31,248.7,23.0,138.07,31.14,24.66,36.52,1.06,-25.97,-22.64,-47,41,-941,24.1,16.8,-2.6,23.9,1.9,-28.9,5.73,2.59,-27.2,29.2
2012-09-20 01:17:00,0.0,1.9533,0.0008,392.52,0.27,246.9,32.3,138.07,31.13,24.65,36.51,1.01,-25.98,-23.06,-48,42,-942,24.1,16.9,-2.6,24.0,1.9,-28.9,5.73,2.63,-27.2,29.2
2012-09-20 01:18:00,0.0,1.9551,0.0010,392.55,0.26,244.8,31.6,138.07,31.13,24.66,36.51,0.95,-25.99,-23.45,-47,41,-941,24.1,17.0,-2.5,24.0,1.9,-29.0,5.73,2.59,-27.2,29.2
2012-09-20 01:19:00,0.0,1.9552,0.0010,392.49,0.30,244.2,28.5,138.07,31.13,24.65,36.52,0.99,-26.00,-23.83,-48,41,-942,24.1,17.2,-2.3,24.0,1.9,-28.9,5.73,2.61,-27.2,29.2
2012-09-20 01:20:00,0.0,1.9545,0.0010,392.50,0.30,248.6,31.8,138.07,31.13,24.66,36.51,1.04,-26.01,-24.19,-48,41,-942,24.1,17.3,-2.2,24.0,1.9,-29.0,5.73,2.63,-27.2,29.2
2012-09-20 01:21:00,0.0,1.9546,0.0008,392.45,0.24,248.8,26.0,138.07,31.12,24.66,36.52,1.04,-26.01,-24.51,-47,41,-941,24.1,17.1,-2.4,24.0,1.9,-29.0,5.73,2.58,-27.2,29.2
2012-09-20 01:22:00,0.0,1.9540,0.0008,392.48,0.28,243.4,32.0,138.07,31.12,24.66,36.52,0.96,-26.02,-24.81,-48,41,-942,24.1,17.3,-2.2,24.0,1.9,-29.0,5.73,2.63,-27.2,29.2
2012-09-20 01:23:00,0.0,1.9520,0.0011,392.33,0.27,252.4,31.9,138.07,31.12,24.66,36.52,0.96,-26.03,-25.11,-48,41,-941,24.1,17.3,-2.2,24.0,1.9,-29.0,5.73,2.60,-27.3,29.2
2012-09-20 01:24:00,0.0,1.9522,0.0008,392.51,0.28,241.2,31.6,138.07,31.12,24.66,36.51,1.02,-26.04,-25.38,-48,41,-942,24.1,17.3,-2.2,24.0,1.9,-29.0,5.73,2.59,-27.3,29.2
2012-09-20 01:25:00,0.0,1.9521,0.0009,392.35,0.22,244.4,25.9,138.07,31.12,24.65,36.52,1.05,-26.05,-25.63,-48,41,-942,24.1,16.8,-2.6,24.0,1.9,-29.0,5.73,2.63,-27.3,29.2
2012-09-20 01:26:00,0.0,1.9519,0.0009,392.40,0.32,244.5,26.8,138.07,31.12,24.65,36.51,1.00,-26.06,-25.88,-48,41,-942,24.2,16.9,-2.5,24.0,1.9,-28.9,5.73,2.58,-27.3,29.3
2012-09-20 01:27:00,0.0,1.9510,0.0009,392.31,0.27,246.3,36.6,138.07,31.11,24.66,36.52,0.92,-26.06,-26.06,-48,41,-941,24.1,16.9,-2.5,24.0,1.9,-29.0,5.73,2.62,-27.3,29.3
2012-09-20 01:28:00,0.0,1.9515,0.0010,392.30,0.27,241.6,30.4,138.07,31.11,24.66,36.52,0.97,-26.08,-25.82,-48,41,-942,24.2,17.2,-2.3,24.0,1.9,-29.0,5.73,2.61,-27.3,29.3
2012-09-20 01:29:00,0.0,1.9531,0.0011,392.43,0.26,238.6,28.9,138.07,31.11,24.66,36.51,1.00,-26.09,-25.91,-48,41,-942,24.2,17.1,-2.3,24.0,1.8,-29.1,5.73,2.59,-27.3,29.3
2012-09-20 01:30:00,0.0,1.9514,0.0009,392.28,0.28,240.1,29.7,138.07,31.10,24.66,36.52,1.05,-26.09,-26.09,-48,41,-941,24.2,17.0,-2.4,24.0,1.8,-29.1,5.73,2.63,-27.3,29.3
2012-09-20 01:31:00,0.0,1.9522,0.0010,392.48,0.28,236.7,36.0,138.07,31.10,24.66,36.51,0.99,-26.10,-25.87,-48,41,-942,24.2,17.1,-2.3,24.1,1.8,-29.1,5.73,2.58,-27.3,29.3
2012-09-20 01:32:00,0.0,1.9534,0.0009,392.38,0.30,241.7,30.8,138.07,31.10,24.66,36.52,0.98,-26.11,-25.91,-48,41,-941,24.2,17.0,-2.4,24.1,1.8,-29.1,5.73,2.61,-27.3,29.3
2012-09-20 01:33:00,0.0,1.9533,0.0010,392.44,0.28,239.5,29.7,138.07,31.10,24.65,36.51,0.96,-26.12,-26.10,-48,41,-942,24.2,17.0,-2.4,24.1,1.8,-29.1,5.73,2.62,-27.3,29.2
2012-09-20 01:34:00,0.0,1.9526,0.0009,392.34,0.24,235.8,29.2,138.07,31.09,24.66,36.52,1.01,-26.13,-25.95,-48,41,-942,24.2,17.2,-2.2,24.1,1.8,-29.1,5.73,2.58,-27.3,29.3
2012-09-20 01:35:00,0.0,1.9528,0.0009,392.43,0.29,235.1,27.5,138.07,31.09,24.65,36.52,1.03,-26.13,-25.91,-48,41,-942,24.2,17.2,-2.2,24.1,1.8,-29.1,5.73,2.63,-27.3,29.3
2012-09-20 01:36:00,0.0,1.9527,0.0011,392.43,0.30,237.1,31.1,138.07,31.09,24.66,36.51,1.04,-26.14,-26.09,-48,41,-942,24.2,17.0,-2.3,24.1,1.8,-29.1,5.73,2.58,-27.4,29.2
2012-09-20 01:37:00,0.0,1.9489,0.0016,392.37,0.32,235.1,24.4,138.07,31.09,24.66,36.51,0.94,-26.15,-26.02,-48,41,-942,24.3,16.8,-2.5,24.1,1.8,-29.1,5.73,2.62,-27.4,29.2
2012-09-20 01:38:00,0.0,1.9481,0.0008,392.27,0.29,244.7,25.2,138.07,31.08,24.66,36.51,1.02,-26.16,-25.91,-48,41,-941,24.3,16.7,-2.6,24.1,1.8,-29.1,5.73,2.61,-27.4,29.3
2012-09-20 01:39:00,0.0,1.9485,0.0008,392.35,0.31,234.2,27.5,138.07,31.08,24.65,36.51,0.96,-26.17,-26.08,-48,41,-942,24.3,16.8,-2.5,24.1,1.8,-29.1,5.73,2.59,-27.4,29.3
2012-09-20 01:40:00,0.0,1.9484,0.0008,392.35,0.29,237.3,31.7,138.07,31.08,24.66,36.52,0.91,-26.17,-26.09,-48,41,-942,24.3,16.7,-2.6,24.1,1.8,-29.1,5.73,2.63,-27.4,29.3
2012-09-20 01:41:00,0.0,1.9494,0.0009,392.31,0.27,242.6,30.7,138.07,31.08,24.66,36.52,1.00,-26.18,-25.92,-48,41,-942,24.3,16.7,-2.6,24.1,1.8,-29.1,5.73,2.58,-27.4,29.3
2012-09-20 01:42:00,0.0,1.9502,0.0012,392.43,0.32,233.5,29.2,138.07,31.07,24.66,36.52,0.89,-25.76,-26.07,-48,41,-941,24.3,16.9,-2.5,24.1,1.8,-29.1,5.73,2.61,-27.5,29.3
2012-09-20 01:43:00,0.0,1.9514,0.0012,392.47,0.29,226.0,26.9,138.07,31.07,24.65,36.52,0.91,-24.14,-26.24,-48,41,-942,24.3,17.0,-2.4,24.1,1.8,-29.2,5.73,2.62,-27.4,29.3
2012-09-20 01:44:00,0.0,1.9517,0.0008,392.43,0.31,243.3,27.8,138.07,31.07,24.65,36.52,0.92,-22.22,-26.37,-48,41,-942,24.3,16.9,-2.4,24.1,1.8,-29.2,5.73,2.59,-27.2,29.3
2012-09-20 01:45:00,0.0,1.9516,0.0008,392.39,0.26,276.4,30.3,138.07,31.06,24.65,36.52,0.94,-20.30,-26.46,-48,41,-942,24.3,16.8,-2.5,24.1,1.9,-28.8,5.73,2.63,-26.8,29.3
2012-09-20 01:46:00,0.0,1.9518,0.0008,392.47,0.34,285.0,31.1,138.07,31.06,24.66,36.52,0.94,-18.45,-26.52,-48,41,-941,24.3,16.8,-2.5,24.1,2.0,-28.3,5.73,2.59,-26.6,29.3
2012-09-20 01:47:00,0.0,1.9512,0.0008,392.49,0.33,294.4,31.5,138.07,31.06,24.65,36.51,0.91,-16.69,-26.55,-48,41,-942,24.3,16.8,-2.5,24.1,2.1,-27.9,5.73,2.60,-26.5,29.3
2012-09-20 01:48:00,0.0,1.9519,0.0009,392.40,0.31,293.8,24.9,138.07,31.06,24.65,36.51,0.89,-15.02,-26.59,-48,41,-941,24.3,17.1,-2.2,24.2,2.1,-27.7,5.73,2.63,-26.4,29.3
2012-09-20 01:49:00,0.0,1.9510,0.0012,392.49,0.25,303.2,31.1,138.07,31.05,24.65,36.51,0.86,-13.44,-26.60,-48,41,-942,24.3,17.1,-2.2,24.1,2.1,-27.7,5.73,2.58,-26.4,29.3
2012-09-20 01:50:00,0.0,1.9476,0.0012,392.27,0.29,301.3,27.7,138.07,31.05,24.66,36.52,0.89,-11.94,-26.62,-48,41,-942,24.3,16.8,-2.5,24.1,2.1,-27.7,5.73,2.62,-26.4,29.3
2012-09-20 01:51:00,0.0,1.9471,0.0007,392.29,0.27,300.3,30.4,138.07,31.05,24.65,36.52,0.90,-10.52,-26.64,-48,41,-942,24.3,16.6,-2.6,24.2,2.1,-27.8,5.73,2.61,-26.5,29.2
2012-09-20 01:52:00,0.0,1.9456,0.0009,392.23,0.28,304.8,28.9,138.07,31.05,24.66,36.52,0.90,-9.19,-26.64,-48,41,-942,24.3,16.5,-2.7,24.1,2.1,-27.8,5.73,2.59,-26.5,29.3
2012-09-20 01:53:00,0.0,1.9459,0.0009,392.33,0.30,296.6,28.6,138.07,31.04,24.65,36.52,0.92,-7.91,-26.65,-48,41,-942,24.3,16.3,-2.9,24.1,2.0,-27.9,5.73,2.63,-26.5,29.2
2012-09-20 01:54:00,0.0,1.9466,0.0008,392.30,0.28,295.3,28.4,138.07,31.04,24.66,36.52,0.94,-6.70,-26.66,-48,41,-942,24.3,16.3,-2.9,24.1,2.0,-28.0,5.73,2.59,-26.6,29.3
2012-09-20 01:55:00,0.0,1.9467,0.0008,392.40,0.30,295.4,28.1,138.07,31.04,24.66,36.51,0.93,-5.54,-26.67,-48,41,-941,24.3,16.4,-2.8,24.1,2.0,-28.1,5.73,2.61,-26.6,29.3
2012-09-20 01:56:00,0.0,1.9466,0.0012,392.44,0.28,284.7,30.7,138.07,31.03,24.66,36.51,0.94,-4.45,-26.67,-48,41,-942,24.3,16.4,-2.8,24.1,2.0,-28.2,5.73,2.63,-26.7,29.3
2012-09-20 01:57:00,0.0,1.9457,0.0014,392.22,0.28,285.1,30.7,138.07,31.03,24.66,36.52,0.94,-3.42,-26.68,-48,41,-941,24.3,16.4,-2.7,24.1,2.0,-28.3,5.73,2.59,-26.7,29.4
2012-09-20 01:58:00,0.0,1.9474,0.0009,392.44,0.29,275.7,30.0,138.07,31.03,24.66,36.52,0.92,-2.43,-26.68,-48,41,-942,24.3,16.4,-2.8,24.2,2.0,-28.3,5.73,2.62,-26.8,29.3
2012-09-20 01:59:00,0.0,1.9481,0.0009,392.45,0.25,277.0,24.7,138.07,31.03,24.66,36.52,0.92,-1.50,-26.68,-48,41,-941,24.3,16.7,-2.5,24.2,1.9,-28.4,5.73,2.61,-26.8,29.3
2012-09-20 02:00:00,1.0,1.9049,0.0248,381.08,6.22,300.0,38.1,138.07,31.03,24.65,36.52,0.90,-0.57,-26.69,-44,-3,-942,24.3,16.7,-2.6,24.1,1.9,-28.8,5.73,2.45,-26.9,29.3
2012-09-20 02:01:00,1.0,1.8811,0.0009,375.24,0.31,333.1,29.9,138.07,31.03,24.66,36.52,0.91,0.24,-26.68,-44,-3,-941,24.3,16.7,-2.5,24.2,1.8,-29.2,5.73,2.46,-26.5,29.4
2012-09-20 02:02:00,1.0,1.8816,0.0009,375.29,0.27,314.4,33.1,138.07,31.03,24.65,36.52,0.90,1.03,-26.68,-44,-3,-942,24.4,16.3,-2.8,24.2,1.8,-29.5,5.73,2.46,-26.7,29.3
2012-09-20 02:03:00,1.0,1.8816,0.0009,375.17,0.28,283.2,26.9,138.07,31.02,24.65,36.53,0.91,1.77,-26.69,-44,-3,-942,24.4,16.0,-3.0,24.2,1.7,-29.9,5.73,2.46,-27.1,29.4
2012-09-20 02:04:00,1.0,1.8812,0.0008,375.26,0.29,260.6,30.6,138.07,31.02,24.66,36.52,0.92,2.43,-26.70,-44,-3,-942,24.4,16.1,-3.0,24.2,1.7,-30.0,5.73,2.47,-27.5,29.4
2012-09-20 02:05:00,0.0,1.9255,0.0222,387.01,6.03,163.4,42.3,138.07,31.02,24.65,36.53,0.89,2.83,-26.70,-48,41,-942,24.4,16.3,-2.8,24.3,1.7,-29.9,5.73,2.59,-29.1,29.4
2012-09-20 02:06:00,0.0,1.9444,0.0009,392.33,0.30,164.0,30.6,138.07,31.02,24.66,36.52,0.91,2.96,-26.70,-48,41,-942,24.5,16.2,-2.8,24.3,1.7,-29.8,5.73,2.62,-28.5,29.4
2012-09-20 02:07:00,0.0,1.9452,0.0009,392.29,0.24,191.2,31.1,138.07,31.02,24.65,36.52,0.94,3.26,-26.70,-48,41,-942,24.5,16.4,-2.7,24.3,1.7,-29.6,5.73,2.62,-28.1,29.4
2012-09-20 02:08:00,0.0,1.9465,0.0007,392.40,0.28,202.4,29.9,138.07,31.02,24.66,36.52,0.93,3.63,-26.70,-48,41,-942,24.5,16.4,-2.6,24.3,1.8,-29.4,5.73,2.58,-27.9,29.4
2012-09-20 02:09:00,0.0,1.9473,0.0008,392.37,0.26,214.0,23.1,138.07,31.01,24.66,36.52,0.92,4.07,-26.69,-48,41,-942,24.5,16.4,-2.7,24.3,1.8,-29.4,5.73,2.63,-27.8,29.4
2012-09-20 02:10:00,0.0,1.9473,0.0008,392.31,0.21,215.5,37.2,138.07,31.01,24.66,36.52,0.93,4.57,-26.69,-48,41,-942,24.5,16.7,-2.4,24.3,1.7,-29.5,5.73,2.60,-27.7,29.4
2012-09-20 02:11:00,0.0,1.9472,0.0009,392.37,0.28,217.3,32.5,138.07,31.01,24.65,36.52,0.94,5.04,-26.68,-48,41,-942,24.5,16.5,-2.5,24.3,1.7,-29.6,5.73,2.58,-27.7,29.4
2012-09-20 02:12:00,0.0,1.9442,0.0016,392.30,0.29,216.1,36.1,138.07,31.01,24.65,36.52,0.95,5.44,-26.67,-48,41,-942,24.5,16.7,-2.4,24.3,1.7,-29.6,5.73,2.63,-27.6,29.4
2012-09-20 02:13:00,0.0,1.9371,0.0013,392.13,0.28,227.0,33.8,138.07,31.01,24.65,36.52,0.94,5.88,-26.66,-48,41,-942,24.5,15.9,-3.1,24.3,1.7,-29.6,5.73,2.60,-27.6,29.5
2012-09-20 02:14:00,0.0,1.9374,0.0009,392.12,0.28,214.4,31.7,138.07,31.01,24.66,36.52,0.93,6.31,-26.65,-48,41,-942,24.5,15.9,-3.1,24.4,1.7,-29.6,5.73,2.59,-27.6,29.5
2012-09-20 02:15:00,0.0,1.9372,0.0008,392.10,0.35,214.7,29.1,138.07,31.00,24.65,36.51,0.94,6.94,-26.64,-48,41,-942,24.5,15.8,-3.1,24.4,1.7,-29.6,5.73,2.63,-27.6,29.5
2012-09-20 02:16:00,0.0,1.9368,0.0009,392.03,0.32,230.4,28.0,138.07,31.00,24.66,36.52,0.94,7.40,-26.63,-48,41,-942,24.6,15.9,-3.0,24.4,1.7,-29.6,5.73,2.59,-27.6,29.5
2012-09-20 02:17:00,0.0,1.9363,0.0010,392.04,0.23,228.3,27.3,138.07,31.00,24.65,36.52,0.94,7.83,-26.63,-48,41,-942,24.6,15.7,-3.2,24.4,1.7,-29.6,5.73,2.60,-27.6,29.5
2012-09-20 02:18:00,0.0,1.9348,0.0012,391.97,0.28,216.3,31.0,138.07,31.00,24.66,36.52,0.94,8.24,-26.62,-48,41,-942,24.6,15.7,-3.1,24.4,1.7,-29.8,5.73,2.63,-27.6,29.5
2012-09-20 02:19:00,0.0,1.9333,0.0012,391.85,0.30,229.7,34.0,138.07,31.00,24.66,36.53,0.94,8.64,-26.61,-48,41,-942,24.6,15.6,-3.2,24.4,1.7,-29.8,5.73,2.58,-27.6,29.5
2012-09-20 02:20:00,0.0,1.9341,0.0009,391.99,0.33,231.0,26.4,138.07,31.00,24.66,36.52,0.94,9.01,-26.60,-48,41,-942,24.6,15.9,-3.0,24.4,1.7,-29.7,5.73,2.60,-27.6,29.5